Terminal Aerodrome Forecast
Issued by NWS Sioux Falls, SD

Home | Current Version | Previous Version | Graphics & Text | Print | Product List | Glossary Off
Versions: 1 2 3 4 5 6 7 8 9 10 11 12 13 14

000
FTUS43 KFSD 130500
TAFSUX
TAF
KSUX 130539Z 1306/1406 02012G19KT P6SM BKN200
     FM131000 02016G23KT P6SM SCT015 BKN080
     FM131300 01018G27KT P6SM -RA BKN020 OVC040
     FM131700 36025G35KT P6SM -RA OVC020
     FM132000 36022G33KT 6SM -SNRA OVC025
     FM140000 35020G32KT P6SM SCT025 OVC080=

USA.gov is the U.S. government's official web portal to all federal, state and local government web resources and services.